x

8413320 - Bar Harbor, Me (atgm1) Weather Station

7:54 - Mon 24th Jul 2017 All times are EDT. -4 hours from GMT.

  • Wind
    1mph, 1mph gusts
  • Sea Temp 56°f
  • Air Temp 58°f
  • Sea Pressure 1015.8mb
  • 8413320 - Bar Harbor, Me
  • 8413320 - Bar Harbor, Me

More Historic Weather Station data

Upgrade to MSW Pro to gain access to the past 30 days of data for over 8000 Wavebouys and Weather Stations around the globe.

Join Pro

Comparision Forecast

View Surf forecast
   
lun. 07/24 7:54 1 1 mph 1015.8mb 56f 58f
7:48  -  1 mph 1015.8mb 56f 59f
7:42 1 2 mph 1015.5mb 56f 58f
7:36 1 2 mph 1015.5mb 56f 58f
7:30 2 2 mph 1015.4mb 56f 58f
7:24 2 2 mph 1015.2mb 56f 58f
7:18 2 3 mph 1015.2mb 56f 58f
7:12 2 3 mph 1015.3mb 56f 58f
7:06  -  1 mph 1015.2mb 56f 58f
7:00  -  1 mph 1015.3mb 56f 58f
6:54  -  1 mph 1015.3mb 56f 57f
6:48 1 2 mph 1015.4mb 56f 57f
6:42 2 2 mph 1015.3mb 56f 57f
6:36 1 2 mph 1015.2mb 56f 57f
6:30 2 2 mph 1015.2mb 56f 57f
6:24 2 3 mph 1015.1mb 56f 56f
6:18 2 3 mph 1015.1mb 56f 56f
6:12 1 2 mph 1015.1mb 56f 56f
6:06 2 2 mph 1015.2mb 56f 56f
6:00 1 2 mph 1015.2mb 56f 56f
5:54 1 3 mph 1015.2mb 56f 56f
5:48 2 3 mph 1015.1mb 56f 57f
5:42 3 3 mph 1015.1mb 56f 57f
5:36 2 3 mph 1015mb 56f 57f
5:30 2 2 mph 1015mb 56f 57f
5:24 2 2 mph 1014.9mb 56f 58f
5:18 2 3 mph 1014.9mb 56f 58f
5:12 2 5 mph 1014.9mb 56f 57f
5:06 5 5 mph 1014.9mb 56f 57f
5:00 3 5 mph 1014.8mb 56f 57f
4:54 3 3 mph 1014.7mb 56f 57f
4:48 2 2 mph 1014.5mb 56f 57f
4:42 1 1 mph 1014.5mb 56f 57f
4:36  -  1 mph 1014.4mb 56f 57f
4:30 1 2 mph 1014.3mb 56f 57f
4:24 2 3 mph 1014.4mb 56f 57f
4:18 2 3 mph 1014.3mb 56f 56f
4:12 2 5 mph 1014.3mb 56f 56f
4:06 3 5 mph 1014.2mb 56f 56f
4:00 2 5 mph 1014.1mb 56f 56f
3:54 3 5 mph 1014.2mb 56f 56f
3:48 1 2 mph 1014.1mb 56f 56f
3:42 1 2 mph 1014.1mb 56f 56f
3:36 1 2 mph 1014mb 55f 56f
3:30 2 2 mph 1013.9mb 56f 56f
3:24  -  1 mph 1013.9mb 55f 56f
3:18 1 2 mph 1014mb 55f 56f
3:12  -  1 mph 1013.9mb 55f 56f
3:06  -  1 mph 1013.9mb 55f 57f
3:00 2 2 mph 1013.9mb 55f 56f
2:54 2 2 mph 1014mb 55f 57f
2:48 2 2 mph 1013.9mb 55f 57f
2:42 2 2 mph 1013.9mb 55f 57f
2:36  -  0 mph 1014mb 55f 57f
2:30  -  1 mph 1014.2mb 55f 57f
2:24  -  2 mph 1014.1mb 55f 57f
2:18 2 3 mph 1014.2mb 55f 57f
2:12 3 5 mph 1014.1mb 55f 58f
2:06 2 5 mph 1014mb 55f 58f
2:00 1 2 mph 1014mb 55f 58f
1:54 1 3 mph 1014mb 55f 58f
1:48 2 3 mph 1013.9mb 55f -
1:42 2 6 mph 1014mb 55f -
1:36 5 6 mph 1013.9mb 55f -
1:30 1 3 mph 1013.9mb 55f 58f
1:24 2 3 mph 1013.9mb 55f 58f
1:18 2 3 mph 1013.9mb 55f 58f
1:12 3 3 mph 1013.8mb 55f 59f
1:06 2 2 mph 1013.7mb 55f 59f
1:00 2 3 mph 1013.8mb 54f 59f
12:54 2 2 mph 1013.7mb 55f 59f
12:48  -  1 mph 1013.6mb 55f 59f
12:42 2 6 mph 1013.5mb 54f 59f
12:36 5 6 mph 1013.4mb 55f 59f
12:30 5 6 mph 1013.5mb 54f 59f
12:24 2 5 mph 1013.4mb 54f 60f
12:18 3 6 mph 1013.3mb 54f 62f
12:12 3 7 mph 1013.5mb 55f 63f
12:06 3 6 mph 1013.4mb 55f 63f
12:00 3 5 mph 1013.4mb 54f 63f
dim. 07/23 11:54 3 7 mph 1013.5mb 53f 63f
11:48 6 7 mph 1013.5mb 52f 63f
11:42 5 8 mph 1013.6mb 54f 64f
11:36 6 7 mph 1013.5mb 54f 63f
11:30 6 7 mph 1013.4mb 54f 63f
11:24 6 9 mph 1013.4mb 54f 64f
11:18 6 11 mph 1013.3mb 54f 64f
11:12 3 9 mph 1013.2mb 54f 63f
11:06 7 11 mph 1013.1mb 54f 64f
11:00 2 8 mph 1013.3mb 54f 63f
10:54 6 8 mph 1013.3mb 54f 63f
10:48 3 10 mph 1013.2mb 54f 64f
10:42 7 10 mph 1013.1mb 54f 64f
10:36 6 10 mph 1013mb 54f 64f
10:30 6 10 mph 1013mb 54f 64f
10:24 9 14 mph 1013mb 54f 64f
10:18 11 16 mph 1012.8mb 54f 64f
10:12 9 14 mph 1012.7mb 53f 64f
10:06 10 15 mph 1012.7mb 53f 64f
10:00 9 14 mph 1012.8mb 53f 64f
9:48 9 16 mph 1012.8mb 53f 64f
9:42 9 14 mph 1012.8mb 53f 64f
9:36 9 14 mph 1012.8mb 53f 64f
9:30 9 13 mph 1012.8mb 53f 64f
9:24 8 14 mph 1012.7mb 53f 65f
9:18 9 13 mph 1012.7mb 53f 65f
9:12 9 13 mph 1012.6mb 53f 65f
9:06 10 15 mph 1012.6mb 53f 65f
9:00 7 14 mph 1012.5mb 53f 65f
8:54 7 10 mph 1012.3mb 53f 65f
8:48 6 10 mph 1012.2mb 53f 65f
8:42 7 10 mph 1012mb 54f 65f
8:36 7 10 mph 1012mb 54f 66f
8:30 6 9 mph 1012mb 54f 66f
8:24 7 10 mph 1011.8mb 54f 66f
8:18 7 14 mph 1011.7mb 55f 66f
8:12 8 15 mph 1011.6mb 54f 66f
8:06 8 16 mph 1011.5mb 54f 66f
8:00 9 14 mph 1011.3mb 55f 66f
7:54 10 16 mph 1011.2mb 55f 66f
7:48 11 15 mph 1011.2mb 55f 67f
7:42 10 15 mph 1011.2mb 55f 67f
7:36 10 16 mph 1011.2mb 55f 67f
7:30 11 14 mph 1011.2mb 55f 67f
7:24 10 14 mph 1011.1mb 56f 68f
7:18 13 16 mph 1011.1mb 56f 68f
7:12 10 16 mph 1011mb 57f 68f
7:06 11 15 mph 1010.9mb 57f 68f
7:00 11 14 mph 1010.9mb 57f 68f
6:54 10 16 mph 1010.9mb 57f 68f
6:48 10 15 mph 1010.9mb 58f 68f
6:42 10 15 mph 1010.9mb 58f 68f
6:36 9 15 mph 1010.8mb 58f 68f
6:30 10 15 mph 1010.7mb 59f 68f
6:24 14 17 mph 1010.7mb 59f 68f
6:18 11 15 mph 1010.7mb 59f 68f
6:12 13 16 mph 1010.6mb 60f 69f
6:06 8 18 mph 1010.5mb 59f 69f
6:00 9 15 mph 1010.5mb 59f 70f
5:48 10 15 mph 1010.4mb 59f 70f
5:42 8 13 mph 1010.5mb 60f 71f
5:36 8 14 mph 1010.5mb 60f 70f
5:30 8 13 mph 1010.4mb 61f 70f
5:24 7 13 mph 1010.4mb 61f 71f
5:18 8 14 mph 1010.2mb 60f 70f
5:12 10 13 mph 1010.3mb 61f 70f
5:06 10 14 mph 1010.2mb 60f 70f
5:00 9 14 mph 1010.2mb 61f 71f
4:54 7 11 mph 1010.1mb 61f 71f
4:48 6 10 mph 1010.1mb 61f 71f
4:42 7 11 mph 1010.1mb 61f 71f
4:36 6 9 mph 1010.1mb 61f 71f
4:30 6 11 mph 1010.1mb 61f 71f
4:24 8 11 mph 1010.2mb 61f 71f
4:18 5 10 mph 1010.1mb 61f 71f
4:12 7 10 mph 1010.2mb 60f 71f
4:06 6 9 mph 1010.1mb 60f 71f
4:00 3 10 mph 1010.1mb 60f 70f
3:54 1 2 mph 1010.2mb 60f 70f
3:48 1 5 mph 1010.1mb 60f 70f
3:42 1 6 mph 1010.2mb 60f 70f
3:36 6 8 mph 1010.3mb 60f 68f
3:30 6 9 mph 1010.2mb 60f 68f
3:24 2 6 mph 1010.3mb 60f 70f
3:18 3 7 mph 1010.3mb 60f 71f
3:12 6 8 mph 1010.1mb 61f 69f
3:06 1 7 mph 1010.2mb 61f 70f
3:00 5 8 mph 1010.2mb 60f 69f
2:54 6 7 mph 1010.3mb 60f 68f
2:48 6 7 mph 1010.3mb 60f 68f
2:42 2 8 mph 1010.2mb 59f 68f
2:36 6 9 mph 1010.2mb 59f 66f
2:30 6 9 mph 1010.1mb 58f 65f
2:24 8 13 mph 1010.2mb 58f 64f
2:18 9 11 mph 1010.1mb 58f 64f
2:12 9 11 mph 1010.2mb 58f 63f
2:06 8 11 mph 1010.2mb 58f 64f
2:00 9 11 mph 1010.1mb 59f 65f
1:54 9 11 mph 1010.1mb 59f 65f
1:48 9 13 mph 1010.2mb 58f 64f
1:42 8 9 mph 1010.3mb 57f 64f
1:36 6 9 mph 1010.3mb 58f 65f
1:30 7 8 mph 1010.3mb 59f 65f
1:24 6 9 mph 1010.4mb 59f 66f
1:18 5 6 mph 1010.4mb 58f 67f
1:12 2 3 mph 1010.4mb 59f 67f
1:06 2 5 mph 1010.4mb 58f 68f
1:00 1 2 mph 1010.3mb 58f 68f
12:54 2 3 mph 1010.4mb 58f 68f
12:48 2 5 mph 1010.4mb 56f 68f
12:42 2 5 mph 1010.5mb 56f 67f
12:36 3 5 mph 1010.6mb 57f 67f
12:30 5 7 mph 1010.6mb 57f 66f
12:24 3 6 mph 1010.5mb 57f 66f
12:18 5 6 mph 1010.6mb 57f 66f
12:12 5 6 mph 1010.6mb 56f 66f
12:06 3 3 mph 1010.5mb 55f 66f
12:00 2 5 mph 1010.6mb 57f 66f
11:54 2 6 mph 1010.6mb 55f 66f
11:48 2 3 mph 1010.7mb 56f 66f
11:42 1 2 mph 1010.6mb 57f 66f
11:36 2 3 mph 1010.6mb 57f 66f
11:30 2 5 mph 1010.6mb 57f 66f
11:24 5 6 mph 1010.6mb 55f 65f
11:18 3 5 mph 1010.6mb 56f 65f
11:12 3 5 mph 1010.7mb 53f 65f
11:06  -  2 mph 1010.8mb 54f 66f
11:00 1 5 mph 1010.7mb 55f 65f
10:54 2 5 mph 1010.8mb 53f 65f
10:48 3 5 mph 1010.8mb 54f 65f
10:42 5 5 mph 1010.8mb 55f 64f
10:36 5 7 mph 1010.8mb 57f 64f
10:30 5 7 mph 1010.9mb 56f 64f
10:24 3 5 mph 1010.8mb 55f 64f
10:18 5 6 mph 1010.8mb 54f 63f
10:12 5 6 mph 1010.7mb 54f 63f
10:06 3 6 mph 1010.8mb 56f 62f
10:00 3 6 mph 1010.7mb 56f 63f
9:54 6 7 mph 1010.8mb 56f 62f
9:48 5 6 mph 1010.6mb 56f 62f
9:42 6 7 mph 1010.7mb 57f 62f
9:36 3 5 mph 1010.6mb 57f 62f
9:30 5 6 mph 1010.5mb 57f 61f
9:24 6 7 mph 1010.7mb 57f 61f
9:18 6 6 mph 1010.8mb 57f 60f
9:12 6 6 mph 1010.7mb 57f 60f
9:06 5 6 mph 1010.7mb 57f 60f
9:00 5 6 mph 1010.7mb 57f 60f
8:48 5 6 mph 1010.6mb 57f 59f
8:42 5 5 mph 1010.7mb 57f 59f
8:36 3 5 mph 1010.7mb 57f 60f
8:30 3 5 mph 1010.7mb 57f 59f
8:24 3 5 mph 1010.7mb 57f 59f
8:18 3 3 mph 1010.7mb 57f 59f
8:12 2 5 mph 1010.5mb 57f 59f
8:06 3 6 mph 1010.6mb 57f 58f
8:00 6 6 mph 1010.8mb 57f 58f
7:54 5 6 mph 1010.8mb 57f 58f
7:48 5 5 mph 1010.7mb 57f 59f
7:42 3 5 mph 1010.5mb 57f 59f
7:36 3 5 mph 1010.5mb 57f 59f
7:30 3 5 mph 1010.5mb 57f 59f
7:24 3 5 mph 1010.5mb 57f 59f
7:18 3 5 mph 1010.5mb 57f 60f
7:12 2 3 mph 1010.5mb 57f 60f
7:06 2 3 mph 1010.5mb 57f 60f
7:00 1 5 mph 1010.4mb 57f 60f
6:54 3 5 mph 1010.4mb 57f 60f
6:48 2 2 mph 1010.5mb 58f 60f
6:42 1 2 mph 1010.4mb 58f 60f
6:36 1 2 mph 1010.4mb 58f 61f
6:30  -  3 mph 1010.3mb 58f 60f
6:24 2 3 mph 1010.2mb 58f 59f
6:18 1 3 mph 1010.1mb 58f 60f
6:12 2 3 mph 1010.1mb 58f 59f
6:06 2 3 mph 1010mb 58f 59f
6:00 2 2 mph 1010mb 58f 58f
5:54 1 2 mph 1009.9mb 58f 59f
5:48 1 3 mph 1009.9mb 58f 58f
5:42 2 3 mph 1009.9mb 58f 58f
5:36 2 2 mph 1010mb 58f 58f
5:30 2 3 mph 1010mb 58f 58f
5:24 2 3 mph 1009.9mb 58f 58f
5:18 1 5 mph 1009.7mb 58f 58f
5:12 3 5 mph 1009.7mb 58f 58f
5:06 2 6 mph 1009.7mb 58f 59f
5:00 2 3 mph 1009.7mb 58f 59f
4:54 2 3 mph 1009.7mb 58f 59f
4:48 2 3 mph 1009.7mb 58f 59f
4:42 1 3 mph 1009.7mb 58f 59f
4:36  -  5 mph 1009.8mb 58f 59f
4:30 2 6 mph 1009.7mb 58f 59f
4:24 2 6 mph 1009.6mb 58f 60f
4:18 5 7 mph 1009.7mb 58f 60f
4:12 3 7 mph 1009.7mb 58f 60f
4:06 6 7 mph 1009.6mb 58f 60f
4:00 3 8 mph 1009.6mb 58f 60f
3:54 5 7 mph 1009.7mb 59f 60f
3:48 6 7 mph 1009.7mb 59f 60f
3:42 6 7 mph 1009.7mb 59f 60f
3:36 5 7 mph 1009.7mb 59f 60f
3:30 6 9 mph 1009.7mb 59f 60f
3:24 6 9 mph 1009.7mb 59f 60f
3:18 7 10 mph 1009.7mb 59f 60f
3:12 8 11 mph 1009.6mb 59f 61f
3:06 9 16 mph 1009.6mb 59f 61f
3:00 9 13 mph 1009.5mb 58f 61f
2:54 9 13 mph 1009.5mb 58f 62f
2:48 8 14 mph 1009.6mb - -
2:42 7 10 mph 1009.5mb - -
2:36 5 8 mph 1009.5mb - -
2:30 6 9 mph 1009.4mb 58f 62f
2:24 6 10 mph 1009.4mb 57f 62f
2:18 8 10 mph 1009.4mb 57f 62f
2:12 9 11 mph 1009.2mb 57f 62f
2:06 8 9 mph 1009.1mb 57f 63f
2:00 8 9 mph 1009.2mb 57f 63f
1:54 7 8 mph 1009.2mb 57f 63f
1:48 7 8 mph 1009.1mb 57f -
1:42 7 8 mph 1009mb 57f -
1:36 7 8 mph 1009mb 57f -
1:30 6 6 mph 1009mb 57f 64f
1:24 5 7 mph 1009mb 57f 65f
1:18 5 9 mph 1009mb 57f 64f
1:12 6 9 mph 1009mb 57f 65f
1:06 7 8 mph 1008.8mb 56f 65f
1:00 5 6 mph 1008.9mb 56f 65f
12:54 3 6 mph 1008.8mb 56f 65f
12:48 2 5 mph 1008.8mb 56f 65f
12:42 3 6 mph 1009mb 56f 65f
12:36 5 7 mph 1009mb 56f 65f
12:30 6 8 mph 1009mb 56f 65f
12:24 7 8 mph 1009mb 56f 66f
12:18 6 7 mph 1008.8mb 56f 66f
12:12 5 6 mph 1008.8mb 56f 66f
12:06 5 10 mph 1008.8mb 56f 67f
12:00 6 8 mph 1008.9mb 55f 67f
sam. 07/22 11:54 6 8 mph 1008.9mb 55f 67f
11:48 7 9 mph 1008.8mb 55f 67f
11:42 6 7 mph 1008.8mb 55f 67f
11:36 5 6 mph 1008.8mb 55f 67f
11:30 2 3 mph 1008.8mb 55f 68f
11:24  -  3 mph 1008.7mb 55f 67f
11:18 2 6 mph 1008.7mb 54f 68f
11:12 5 9 mph 1008.6mb 54f 68f
11:06 6 8 mph 1008.5mb 53f 68f
11:00 7 10 mph 1008.5mb 53f 68f
10:54 7 9 mph 1008.5mb 53f 69f
10:48 7 9 mph 1008.5mb 52f 69f
10:42 5 9 mph 1008.5mb 52f 69f
10:36 6 8 mph 1008.4mb 52f 69f
10:30 7 9 mph 1008.2mb 52f 70f
10:24 8 10 mph 1008mb 52f 70f
10:18 8 10 mph 1008mb 52f 71f
10:12 8 13 mph 1008mb 53f 71f
10:06 10 14 mph 1007.9mb 54f 72f
10:00 9 11 mph 1007.9mb 56f 72f
9:54 8 10 mph 1007.8mb 55f 72f
9:48 8 9 mph 1007.8mb 56f 72f
9:42 9 11 mph 1007.7mb 56f 73f
9:36 9 16 mph 1007.6mb 56f 72f
9:30 9 10 mph 1007.5mb 56f 71f
9:24 7 9 mph 1007.4mb 56f 71f
9:18 7 8 mph 1007.3mb 56f 71f
9:12 7 10 mph 1007.2mb 56f 71f
9:06 7 9 mph 1007.1mb 56f 74f
9:00 6 10 mph 1007.1mb 56f 74f
8:54 7 10 mph 1006.9mb 56f 74f
8:48 8 11 mph 1006.8mb 56f 74f
8:42 7 13 mph 1006.8mb 56f 74f
8:36 9 11 mph 1006.8mb 56f 74f
8:30 10 13 mph 1006.8mb 56f 73f
8:24 10 13 mph 1006.7mb 55f 73f
8:18 8 11 mph 1006.7mb 55f 74f
8:12 8 11 mph 1006.6mb 55f 74f
8:06 8 11 mph 1006.5mb 55f 74f
8:00 6 10 mph 1006.5mb 55f 74f
7:54 8 10 mph 1006.4mb 55f 73f
7:48 9 14 mph 1006.3mb 55f 74f
7:42 8 13 mph 1006.3mb 55f 74f
7:36 9 11 mph 1006.2mb 55f 74f
7:30 7 10 mph 1006.2mb 55f 74f
7:24 7 13 mph 1006.1mb 55f 74f
7:12 8 14 mph 1006mb 56f 75f
7:06 9 14 mph 1006mb 56f 75f
7:00 9 14 mph 1006mb 56f 75f
6:54 8 13 mph 1006mb 57f 76f
6:48 9 14 mph 1006mb 56f 76f
6:42 10 13 mph 1006mb 57f 76f
6:36 7 10 mph 1006mb 56f 77f
6:30 8 10 mph 1005.9mb 56f 77f
6:24 7 11 mph 1005.9mb 56f 78f
6:18 8 13 mph 1006mb 56f 78f
6:12 10 14 mph 1006mb 57f 78f
6:06 8 11 mph 1006.1mb 57f 78f
6:00 8 13 mph 1006mb 57f 78f
5:54 8 13 mph 1005.9mb 58f 78f
5:48 9 13 mph 1005.9mb 58f 78f
5:42 10 16 mph 1005.9mb 59f 78f
5:36 8 14 mph 1006mb 59f 78f
5:30 8 14 mph 1006mb 59f 78f
5:24 9 14 mph 1005.9mb 60f 78f
5:18 9 14 mph 1005.9mb 60f 78f
5:12 9 17 mph 1005.9mb 60f 78f
5:06 8 17 mph 1005.9mb 60f 78f
5:00 11 17 mph 1006mb 60f 79f
4:54 11 18 mph 1005.9mb 60f 79f
4:48 13 18 mph 1005.9mb 60f 79f
4:42 10 18 mph 1006mb 60f 79f
4:36 11 18 mph 1006mb 60f 79f
4:30 7 16 mph 1006.1mb 60f 80f
4:24 13 18 mph 1006.2mb 61f 80f
4:18 13 20 mph 1006.2mb 61f 80f
4:12 7 16 mph 1006.3mb 61f 80f
4:06 9 15 mph 1006.2mb 61f 79f
4:00 11 18 mph 1006.3mb 61f 79f
3:54 10 20 mph 1006.3mb 61f 79f
3:48 11 18 mph 1006.4mb 61f 79f
3:42 11 16 mph 1006.4mb 61f 79f
3:36 9 14 mph 1006.5mb 61f 79f
3:30 10 17 mph 1006.5mb 61f 78f
3:24 8 14 mph 1006.6mb 61f 78f
3:18 7 13 mph 1006.5mb 61f 78f
3:12 5 10 mph 1006.5mb 61f 78f
3:06 7 13 mph 1006.6mb 61f 76f
3:00 2 5 mph 1006.7mb 61f 68f
2:54 3 7 mph 1006.7mb 61f 68f
2:48 2 8 mph 1006.8mb 61f 73f
2:42 2 6 mph 1006.8mb 61f 72f
2:36 5 6 mph 1007.1mb 60f 66f
2:30 3 7 mph 1007.2mb 60f 66f
2:24 6 9 mph 1007.1mb 60f 65f
2:18 3 9 mph 1007.1mb 60f 66f
2:12 8 11 mph 1007.1mb 60f 65f
2:06 9 10 mph 1007.2mb 60f 62f
2:00 5 8 mph 1007.3mb 60f 64f
1:54 10 14 mph 1007.3mb 60f 63f
1:48 9 15 mph 1007.3mb 60f 63f
1:42 10 14 mph 1007.4mb 60f 63f
1:36 11 14 mph 1007.4mb 60f 63f
1:30 6 11 mph 1007.5mb 60f 69f
1:24 8 15 mph 1007.5mb 60f 71f
1:18 7 14 mph 1007.6mb 60f 68f
1:12 10 14 mph 1007.7mb 58f 69f
1:06 9 14 mph 1007.8mb 59f 69f
1:00 5 14 mph 1007.6mb 58f 74f
12:54 11 14 mph 1007.9mb 58f 70f
12:48 10 13 mph 1008.1mb 58f 67f
12:42 9 15 mph 1008.1mb 58f 72f
12:36 8 14 mph 1008mb 58f 71f
12:30 9 13 mph 1008mb 59f 73f
12:24 10 15 mph 1008.1mb 59f 72f
12:18 7 9 mph 1008.1mb 59f 70f
12:12 6 9 mph 1008.2mb 59f 69f
12:06 7 8 mph 1008.2mb 59f 72f
12:00 5 6 mph 1008.2mb 59f 73f
11:54 5 6 mph 1008.2mb 59f 73f
11:48 6 7 mph 1008.1mb 59f 73f
11:42 5 6 mph 1008.1mb 58f 71f
11:36 3 5 mph 1008.1mb 59f 70f
11:30 5 6 mph 1008.1mb 59f 70f
11:24 6 6 mph 1008.1mb 59f 70f
11:18 3 6 mph 1008.2mb 59f 70f
11:12 6 6 mph 1008.1mb 59f 71f
11:06 5 6 mph 1008.3mb 59f 71f
11:00 6 7 mph 1008.3mb 59f 69f
10:54 5 6 mph 1008.3mb 59f 69f
10:48 2 5 mph 1008.2mb 59f 70f
10:42 3 5 mph 1008.4mb 59f 69f
10:36 5 6 mph 1008.4mb 59f 70f
10:30 6 6 mph 1008.4mb 59f 70f
10:24 2 5 mph 1008.6mb 59f 70f
10:18 2 5 mph 1008.6mb 59f 70f
10:12 5 6 mph 1008.7mb 59f 70f
10:06 6 6 mph 1008.8mb 59f 70f
10:00 6 6 mph 1008.9mb 59f 70f
9:54 5 6 mph 1008.9mb 59f 69f
9:48 5 7 mph 1008.9mb 58f 69f
9:42 6 9 mph 1008.9mb 58f 69f
9:36 7 9 mph 1008.8mb 58f 69f
9:30 6 7 mph 1008.9mb 58f 69f
9:24 5 5 mph 1009mb 58f 69f
9:18 3 6 mph 1008.9mb 58f 69f
9:12 5 6 mph 1009mb 58f 69f
9:06 5 7 mph 1008.9mb 57f 69f
9:00 7 9 mph 1009mb 57f 69f
8:54 8 9 mph 1008.9mb 57f 69f
8:48 7 9 mph 1008.8mb 57f 69f
8:42 7 10 mph 1008.8mb 57f 69f
8:36 9 13 mph 1008.8mb 57f 69f
8:30 9 13 mph 1008.8mb 57f 69f
8:24 8 10 mph 1008.7mb 57f 69f
8:18 9 10 mph 1008.6mb 57f 69f
8:12 9 11 mph 1008.6mb 57f 69f
8:06 9 11 mph 1008.5mb 57f 69f
8:00 9 11 mph 1008.5mb 57f 68f
7:54 10 13 mph 1008.5mb 57f 69f
7:48 11 13 mph 1008.5mb 57f 69f
7:42 9 11 mph 1008.4mb 56f 68f
7:36 7 9 mph 1008.1mb 56f 68f
7:30 8 9 mph 1008.1mb 56f 68f
7:24 9 11 mph 1008.1mb 56f 68f
7:18 7 8 mph 1008.2mb 56f 68f
7:12 5 6 mph 1008.1mb 56f 68f
7:06 3 5 mph 1008mb 56f 68f
7:00 1 3 mph 1007.8mb 56f 69f
6:54  -  1 mph 1007.8mb 56f 69f
6:48  -  1 mph 1007.9mb 56f 68f
6:42  -  1 mph 1007.8mb 56f 68f
6:36  -  1 mph 1007.9mb 56f 68f
6:30  -  1 mph 1007.8mb 56f 67f
6:24 1 3 mph 1007.7mb 56f 66f
6:18 2 2 mph 1007.6mb 56f 67f
6:12  -  3 mph 1007.5mb 56f 68f
6:06 2 3 mph 1007.5mb 56f 67f
6:00  -  3 mph 1007.4mb 56f 67f
5:54 1 3 mph 1007.4mb 56f 66f
5:48 3 3 mph 1007.4mb 56f 67f
5:42 1 2 mph 1007.6mb 56f 67f
5:36 2 2 mph 1007.6mb 56f 67f
5:30 2 2 mph 1007.5mb 56f 67f
5:24 2 2 mph 1007.5mb 56f 66f
5:18 2 3 mph 1007.5mb 56f 66f
5:12 3 5 mph 1007.5mb 56f 67f
5:06 3 5 mph 1007.4mb 56f 67f
5:00 3 5 mph 1007.5mb 56f 67f
4:54 2 3 mph 1007.6mb 56f 66f
4:48 1 2 mph 1007.4mb 56f 67f
4:42 2 5 mph 1007.4mb 56f 67f
4:36 3 7 mph 1007.4mb 56f 67f
4:30 5 6 mph 1007.3mb 56f 67f
4:24 3 7 mph 1007.3mb 56f 67f
4:18 3 6 mph 1007.2mb 56f 67f
4:12 5 6 mph 1007.2mb 56f 67f
4:06 5 6 mph 1007.1mb 56f 66f
4:00 5 6 mph 1007.1mb 56f 66f
3:54 6 7 mph 1007mb 56f 65f
3:48 5 6 mph 1007mb 56f 67f
3:42 5 6 mph 1006.9mb 56f 66f
3:36 6 6 mph 1006.9mb 56f 67f
3:30 5 6 mph 1006.8mb 56f 67f
3:24 5 6 mph 1006.8mb 56f 67f
3:18 5 6 mph 1006.8mb 56f 67f
3:12 6 6 mph 1006.8mb 56f 67f
3:06 5 7 mph 1006.8mb 56f 67f
3:00 6 7 mph 1006.8mb 56f 68f
2:54 5 7 mph 1006.8mb 56f 68f
2:48 6 7 mph 1006.8mb 56f 68f
2:42 5 8 mph 1006.8mb 56f 68f
2:36 7 8 mph 1006.8mb 56f 68f
2:30 6 7 mph 1006.7mb 56f 68f
2:24 6 9 mph 1006.7mb 56f 67f
2:18 7 10 mph 1006.8mb 56f 68f
2:12 8 11 mph 1006.8mb 56f 68f
2:06 8 14 mph 1006.8mb 56f 68f
2:00 8 14 mph 1006.9mb 56f 69f
1:54 10 14 mph 1006.9mb 56f 70f
1:48 10 15 mph 1006.8mb 56f -
1:42 10 13 mph 1006.8mb 55f -
1:36 8 9 mph 1006.7mb 55f -
1:30 7 10 mph 1006.5mb 55f 71f
1:24 8 10 mph 1006.4mb 55f 70f
1:18 7 9 mph 1006.2mb 55f 71f
1:12 7 9 mph 1006.1mb 55f 71f
1:06 7 10 mph 1006.1mb 55f 73f
1:00 7 9 mph 1006.1mb 55f 73f
12:54 6 9 mph 1006.1mb 55f 73f
12:48 6 11 mph 1006.1mb 55f 73f
12:42 9 13 mph 1006mb 55f 74f
12:36 7 9 mph 1006.1mb 55f 73f
12:30 7 10 mph 1006mb 55f 73f
12:24 9 11 mph 1005.9mb 55f 73f
12:18 8 11 mph 1005.9mb 55f 73f
12:12 8 9 mph 1005.9mb 55f 70f
12:06 9 11 mph 1006mb 55f 70f
12:00 9 11 mph 1005.9mb 55f 71f
ven. 07/21 11:54 9 11 mph 1005.9mb 55f 71f
11:48 9 13 mph 1005.8mb 54f 74f
11:42 7 11 mph 1005.8mb 53f 73f
11:36 8 13 mph 1005.6mb 53f 73f
11:30 8 13 mph 1005.7mb 53f 73f
11:24 7 11 mph 1005.7mb 53f 73f
11:18 8 13 mph 1005.7mb 52f 73f
11:12 7 13 mph 1005.7mb 52f 73f
11:06 8 11 mph 1005.8mb 52f 72f
11:00 8 13 mph 1005.8mb 52f 72f
10:54 8 14 mph 1006mb 52f 72f
10:48 8 18 mph 1006mb 53f 72f
10:42 16 20 mph 1006.1mb 52f 71f
10:36 14 20 mph 1005.8mb 52f 71f
10:30 13 18 mph 1005.4mb 51f 74f
10:24 14 18 mph 1005.3mb 50f 74f
10:18 10 17 mph 1005.4mb 50f 74f
10:12 13 18 mph 1005.3mb 50f 74f
10:06 13 20 mph 1005.3mb 50f 74f
10:00 14 18 mph 1005.3mb 50f 75f
9:54 13 16 mph 1005.3mb 50f 75f
9:48 13 21 mph 1005.3mb 50f 75f
9:42 13 21 mph 1005.3mb 50f 75f
9:36 13 18 mph 1005.4mb 50f 75f
9:30 10 17 mph 1005.4mb 50f 75f
9:24 11 21 mph 1005.4mb 51f 76f
9:18 13 16 mph 1005.3mb 51f 76f
9:12 13 21 mph 1005.4mb 51f 76f
9:06 13 18 mph 1005.4mb 51f 76f
9:00 10 16 mph 1005.4mb 51f 76f
8:54 10 21 mph 1005.4mb 54f 77f
8:48 11 15 mph 1005.3mb 54f 77f
8:42 13 20 mph 1005.2mb 54f 77f
8:36 11 20 mph 1005.2mb 53f 77f
8:30 11 17 mph 1005.2mb 51f 77f
8:24 10 21 mph 1005.1mb 52f 77f
8:18 10 17 mph 1005mb 52f 77f
8:12 14 21 mph 1004.9mb 52f 77f
8:06 11 16 mph 1004.9mb 53f 77f
8:00 13 20 mph 1004.9mb 53f 77f
7:54 13 18 mph 1005mb 54f 78f
7:48 13 23 mph 1005mb 54f 78f
7:42 13 18 mph 1005.2mb 54f 78f
7:36 14 21 mph 1005.3mb 54f 78f
7:30 14 18 mph 1005.3mb 54f 78f
7:24 13 20 mph 1005.1mb 54f 78f
7:18 13 18 mph 1005mb 55f 79f
7:12 13 17 mph 1004.9mb 55f 79f
7:06 10 16 mph 1004.8mb 55f 79f
7:00 10 15 mph 1004.7mb 55f 79f
6:54 10 15 mph 1004.6mb 55f 79f
6:48 10 17 mph 1004.8mb 55f 79f
6:42 8 15 mph 1004.7mb 55f 79f
6:36 11 21 mph 1004.7mb 55f 80f
6:30 11 17 mph 1004.6mb 55f 80f
6:24 11 18 mph 1004.7mb 56f 80f
6:18 8 20 mph 1004.7mb 56f 80f
6:12 14 20 mph 1004.8mb 56f 80f
6:06 11 21 mph 1004.7mb 56f 80f
6:00 14 22 mph 1004.5mb 56f 80f
5:54 11 17 mph 1004.6mb 56f 80f
5:48 13 20 mph 1004.6mb 56f 80f
5:42 14 17 mph 1004.5mb 56f 80f
5:36 10 21 mph 1004.5mb 56f 80f
5:30 15 22 mph 1004.5mb 57f 80f
5:24 13 20 mph 1004.5mb 57f 80f
5:18 14 21 mph 1004.6mb 58f 80f
5:12 11 21 mph 1004.6mb 58f 81f
5:06 13 20 mph 1004.5mb 59f 80f
5:00 10 22 mph 1004.6mb 60f 81f
4:54 11 20 mph 1004.6mb 60f 81f
4:48 14 20 mph 1004.5mb 60f 81f
4:42 14 20 mph 1004.6mb 61f 82f
4:36 13 17 mph 1004.6mb 61f 82f
4:30 9 15 mph 1004.6mb 60f 82f
4:24 8 13 mph 1004.7mb 61f 83f
4:18 9 15 mph 1004.9mb 60f 83f
4:12 6 14 mph 1005mb 60f 83f
4:06 10 16 mph 1005mb 60f 82f
4:00 11 15 mph 1005.1mb 60f 82f
3:54 13 17 mph 1005.2mb 61f 82f
3:48 14 18 mph 1005.1mb 62f 82f
3:42 13 17 mph 1005.1mb 62f 82f
3:36 9 18 mph 1005.3mb 61f 83f
3:30 13 17 mph 1005.2mb 61f 82f
3:24 9 15 mph 1005.3mb 62f 83f
3:18 10 18 mph 1005.3mb 62f -
3:12 10 20 mph 1005.4mb 62f -
3:06 11 16 mph 1005.3mb 62f -
3:00 13 17 mph 1005.4mb 62f -
2:54 6 10 mph 1005.4mb 62f -
2:48 8 13 mph 1005.3mb 62f -
2:42 11 16 mph 1005.3mb 62f -
2:36 10 16 mph 1005.3mb 62f -
2:30 11 16 mph 1005.4mb 61f -
2:24 3 6 mph 1005.5mb 61f 73f
2:18 3 7 mph 1005.6mb 61f 74f
2:12 2 6 mph 1005.7mb 61f 70f
2:06 5 6 mph 1005.7mb 61f 68f
2:00 3 6 mph 1005.8mb 61f 67f
1:54 6 10 mph 1005.8mb 61f 66f
1:48 10 13 mph 1005.9mb 60f 64f
1:42 6 8 mph 1006mb 60f 66f
1:36 7 10 mph 1006.1mb 60f 70f
1:30 6 9 mph 1006.1mb 60f 71f
1:24 8 11 mph 1006.2mb 60f 70f
1:18 9 10 mph 1006.4mb 60f 68f
1:12 9 11 mph 1006.5mb 60f 67f
1:06 10 11 mph 1006.6mb 60f 66f
1:00 8 10 mph 1006.6mb 60f 71f
12:54 9 10 mph 1006.7mb 60f 74f
12:48 7 10 mph 1006.7mb 60f 75f
12:42 9 11 mph 1006.8mb 60f 72f
12:36 9 11 mph 1006.9mb 60f 74f
12:30 9 11 mph 1006.9mb 60f 76f
12:24 9 11 mph 1007mb 59f 76f
12:18 8 10 mph 1007mb 59f 77f
12:12 8 11 mph 1007.1mb 59f 76f
12:06 9 10 mph 1007.1mb 59f 75f
12:00 8 9 mph 1007.2mb 60f 75f
11:54 8 9 mph 1007.3mb 60f 75f
11:48 8 9 mph 1007.4mb 59f 74f
11:42 8 9 mph 1007.5mb 58f 73f
11:36 8 8 mph 1007.5mb 59f 72f
11:30 6 7 mph 1007.6mb 59f 72f
11:24 5 7 mph 1007.7mb 58f 74f
11:18 5 7 mph 1007.7mb 59f 73f
11:12 6 6 mph 1007.8mb 58f 72f
11:06 6 7 mph 1007.8mb 58f 71f
11:00 6 7 mph 1007.7mb 58f 70f
10:54 6 6 mph 1007.6mb 58f 71f
10:48 5 5 mph 1007.6mb 58f 71f
10:42 3 5 mph 1007.7mb 58f 71f
10:36 3 5 mph 1007.8mb 58f 71f
10:30 3 5 mph 1007.8mb 58f 70f
10:24 5 6 mph 1007.8mb 58f 68f
10:18 5 5 mph 1007.8mb 56f 69f
10:12 3 5 mph 1007.8mb 58f 69f
10:06 2 3 mph 1007.8mb 59f 69f
10:00 1 2 mph 1007.8mb 59f 70f
9:54 1 2 mph 1007.8mb 59f 69f
9:48 1 2 mph 1007.8mb 57f 69f
9:42 1 2 mph 1007.8mb 57f 68f
9:36 2 2 mph 1007.8mb 58f 67f
9:30 1 2 mph 1007.8mb 58f 68f
9:24  -  1 mph 1007.8mb 58f 68f
9:18  -  2 mph 1007.8mb 58f 69f
9:12  -  2 mph 1007.8mb 58f 67f
9:06 1 2 mph 1007.8mb 58f 66f
9:00 1 2 mph 1007.8mb 59f 66f
8:54 1 3 mph 1007.8mb 59f 66f
8:48 2 3 mph 1007.8mb 59f 65f
8:42 2 3 mph 1007.9mb 59f 64f
8:36 2 2 mph 1007.9mb 59f 64f
8:30 1 2 mph 1007.9mb 59f 65f
8:24 1 3 mph 1008mb 58f 65f
8:18 3 3 mph 1007.9mb 58f 64f
8:12 2 2 mph 1007.9mb 58f 64f
8:06 2 2 mph 1008mb 57f 64f
8:00 1 2 mph 1007.9mb 58f 64f
7:54 1 2 mph 1008mb 57f 65f
7:48  -  1 mph 1008mb 57f 67f
7:42  -  1 mph 1007.9mb 57f 65f
7:36 1 2 mph 1008mb 57f 64f
7:30 1 1 mph 1007.9mb 57f 65f
7:24  -  1 mph 1007.8mb 57f 65f
7:18  -  1 mph 1007.8mb 57f 65f
7:12 1 2 mph 1007.8mb 57f 64f
7:06 1 2 mph 1007.7mb 57f 63f
7:00 2 2 mph 1007.7mb 57f 64f
6:54 1 2 mph 1007.7mb 58f 65f
6:48 2 2 mph 1007.7mb 58f 64f
6:42  -  1 mph 1007.7mb 58f 65f
6:36 1 2 mph 1007.6mb 58f 64f
6:30 2 3 mph 1007.6mb 58f 63f
6:24 3 3 mph 1007.6mb 58f 63f
6:18 3 3 mph 1007.5mb 58f 63f
6:12 2 3 mph 1007.5mb 58f 63f
6:06 2 3 mph 1007.6mb 58f 63f
6:00 3 5 mph 1007.6mb 58f 63f
5:54 5 5 mph 1007.6mb 58f 63f
5:48  -  2 mph 1007.5mb 58f 63f
5:42 2 5 mph 1007.5mb 58f 62f
5:36 2 3 mph 1007.5mb 58f 62f
5:30 2 3 mph 1007.4mb 58f 62f
5:24  -  1 mph 1007.4mb 58f 64f
5:18  -  0 mph 1007.4mb 58f 64f
5:12  -  1 mph 1007.5mb 58f 64f
5:06 2 2 mph 1007.4mb 58f 64f
5:00 2 3 mph 1007.4mb 58f 64f
4:54 2 3 mph 1007.4mb 58f 64f
4:48 2 3 mph 1007.4mb 58f 64f
4:42 2 3 mph 1007.4mb 58f 64f
4:36 2 3 mph 1007.4mb 58f 64f
4:30 3 5 mph 1007.4mb 58f 64f
4:24 3 3 mph 1007.4mb 58f 64f
4:18 2 3 mph 1007.3mb 58f 63f
4:12 2 2 mph 1007.3mb 58f 63f
4:06  -  1 mph 1007.3mb 58f 63f
4:00  -  0 mph 1007.2mb 58f 63f
3:54  -  1 mph 1007.2mb 58f 63f
3:48  -  1 mph 1007.2mb 58f 63f
3:42 2 2 mph 1007.2mb 58f 64f
3:36 2 2 mph 1007.2mb 58f 63f
3:30 2 2 mph 1007.3mb 58f 63f
3:24 2 3 mph 1007.3mb 58f 63f
3:18 3 5 mph 1007.4mb 58f 63f
3:12 3 3 mph 1007.4mb 58f 62f
3:06 2 5 mph 1007.4mb 58f 61f
3:00 3 5 mph 1007.4mb 58f 61f
2:54 5 5 mph 1007.4mb 58f 62f
2:48 2 3 mph 1007.3mb 58f -
2:42 2 3 mph 1007.3mb 58f -
2:36 3 3 mph 1007.3mb 58f -
2:30 3 3 mph 1007.3mb 58f 62f
2:24 2 3 mph 1007.2mb 58f 61f
2:18 2 2 mph 1007.2mb 58f 61f
2:12  -  2 mph 1007.3mb 58f 60f
2:06  -  1 mph 1007.3mb 57f 60f
2:00  -  1 mph 1007.3mb 58f 60f
1:54  -  1 mph 1007.3mb 58f 59f
1:48  -  2 mph 1007.2mb - -
1:42 2 3 mph 1007.2mb - -
1:36 3 5 mph 1007.2mb - -
1:30 1 5 mph 1007.2mb 57f 63f
1:24 2 3 mph 1007.2mb 58f 62f
1:18 2 5 mph 1007.2mb 58f 63f
1:12 3 10 mph 1007.3mb 58f 61f
1:06 5 7 mph 1007.3mb 58f 62f
1:00 3 5 mph 1007.3mb 57f 64f
12:54  -  2 mph 1007.3mb 57f 66f
12:48 2 5 mph 1007.3mb 57f 65f
12:42 3 5 mph 1007.3mb 57f 63f
12:36  -  1 mph 1007.4mb 57f 65f
12:30  -  5 mph 1007.4mb 57f 66f
12:24 3 5 mph 1007.5mb 57f 65f
12:18 5 6 mph 1007.6mb 57f 65f
12:12 5 5 mph 1007.7mb 57f 65f
12:06  -  2 mph 1007.7mb 57f 66f
12:00 1 1 mph 1007.8mb 57f 66f
jeu. 07/20 11:54 1 6 mph 1007.8mb 57f 66f
11:48 5 6 mph 1007.8mb 57f 65f
11:42 1 5 mph 1007.9mb 57f 66f
11:36 3 5 mph 1008mb 57f 66f
11:30 3 3 mph 1007.8mb 57f 66f
11:24 2 3 mph 1008mb 57f 67f
11:18  -  1 mph 1008mb 57f 67f
11:12 1 3 mph 1008.1mb 57f 68f
11:06 3 3 mph 1008.2mb 57f 68f
11:00 3 5 mph 1008.1mb 57f 67f
10:54 2 5 mph 1008.3mb 57f 66f
10:48 6 7 mph 1008.2mb 57f 67f
10:42 3 18 mph 1008.2mb 57f 66f
10:36 5 18 mph 1008.4mb 57f 64f
10:30 6 8 mph 1007.8mb 57f 65f
10:24  -  2 mph 1007.7mb 57f 65f
10:18  -  2 mph 1007.7mb 57f 67f
10:12 1 3 mph 1007.8mb 57f 66f
10:06 2 6 mph 1007.9mb 57f 65f
10:00 5 6 mph 1008mb 57f 65f
9:54 3 5 mph 1008mb 57f 66f
9:48 5 6 mph 1008.1mb 57f 66f
9:42 5 8 mph 1008.2mb 57f 65f
9:36 7 9 mph 1008.1mb 57f 66f
9:30 2 6 mph 1008.1mb 57f 70f
9:24 3 5 mph 1008.1mb 57f 66f
9:18 1 6 mph 1008.2mb 56f 65f
9:12 5 6 mph 1008.3mb 56f 62f
9:06 3 5 mph 1008.2mb 56f 65f
9:00 2 6 mph 1008.2mb 57f 66f
8:54 5 8 mph 1008.3mb 57f 64f
8:48 5 6 mph 1008.5mb 54f 63f
8:42 3 3 mph 1008.4mb 53f 65f
8:36 3 3 mph 1008.3mb 53f 63f
8:30 2 2 mph 1008.3mb 53f 63f
8:24 2 3 mph 1008.4mb 53f 62f
8:18 1 2 mph 1008.5mb 55f 63f
8:12 1 3 mph 1008.7mb 55f 62f
8:06  -  2 mph 1008.8mb 57f -
8:00 1 3 mph 1008.7mb 56f -
7:54 2 5 mph 1008.7mb 56f -
7:48 3 6 mph 1008.5mb 54f -
7:42 5 6 mph 1008.3mb 55f -
7:36 5 6 mph 1008.2mb 54f -
7:30 2 6 mph 1008.1mb 53f -
7:24 5 6 mph 1008.1mb 55f -
7:18 3 7 mph 1008.2mb 54f -
7:12 5 6 mph 1008mb 54f -
7:06 3 6 mph 1008mb 54f -
7:00 2 6 mph 1008mb 55f -
6:54 3 6 mph 1008mb 55f -
6:48 6 7 mph 1008.2mb 55f -
6:42 3 5 mph 1008.2mb 55f -
6:36 3 7 mph 1008.2mb 55f -
6:30 3 7 mph 1008.1mb 55f -
6:24 5 7 mph 1008.2mb 55f -
6:18 7 9 mph 1008.3mb 55f -
6:12 6 13 mph 1008.4mb 55f 77f
6:06 7 13 mph 1008.3mb 55f 77f
6:00 7 14 mph 1008.2mb 56f 77f
5:54 8 17 mph 1008.3mb 56f 77f
5:48 9 16 mph 1008.4mb 56f 77f
5:42 10 16 mph 1008.5mb 56f 78f
5:36 6 9 mph 1008.5mb 56f 78f
5:30 7 11 mph 1008.5mb 56f 78f
5:24 8 15 mph 1008.6mb 56f 79f
5:18 8 14 mph 1008.6mb 56f 79f
5:12 9 14 mph 1008.6mb 57f 80f
5:06 9 13 mph 1008.5mb 58f 80f
5:00 6 14 mph 1008.4mb 58f 80f
4:54 8 14 mph 1008.6mb 58f 80f
4:48 10 17 mph 1008.6mb 58f 80f
4:42 13 17 mph 1008.6mb 58f 80f
4:36 10 20 mph 1008.7mb 58f 80f
4:30 10 17 mph 1008.7mb 57f 81f
4:24 10 18 mph 1008.8mb 58f 81f
4:18 11 16 mph 1008.9mb 58f 81f
4:12 9 14 mph 1008.9mb 58f 81f
4:06 9 15 mph 1009mb 58f 81f
4:00 7 13 mph 1009mb 59f 81f
3:54 8 16 mph 1009.1mb 59f 81f
3:48 8 15 mph 1009.2mb 60f 82f
3:42 8 15 mph 1009.1mb 60f 82f
3:36 10 16 mph 1009.1mb 60f 83f
3:30 6 10 mph 1008.9mb 60f 83f
3:24 7 11 mph 1009mb 60f 83f
3:18 6 13 mph 1009.1mb 60f 84f
3:12 5 13 mph 1009.1mb 60f 84f
3:06 9 14 mph 1009.1mb 61f 83f
3:00 7 10 mph 1009.2mb 60f 84f
2:54 9 14 mph 1009.1mb 60f 83f
2:48 2 13 mph 1009.1mb 60f 84f
2:42 6 14 mph 1009.2mb 60f 84f
2:36 6 11 mph 1009.3mb 60f 83f
2:30 3 6 mph 1009.5mb 60f 79f
2:24 3 6 mph 1009.3mb 60f 77f
2:18 2 5 mph 1009.3mb 59f 74f
2:12 3 5 mph 1009.3mb 59f 74f
2:06 3 5 mph 1009.4mb 59f 73f
2:00 2 3 mph 1009.5mb 59f 73f
1:54 2 5 mph 1009.7mb 59f 72f
1:48 2 6 mph 1009.9mb 59f 73f
1:42 2 9 mph 1010mb 59f 69f
1:36 7 9 mph 1010.1mb 59f 69f
1:30 8 11 mph 1010.2mb 59f 66f
1:24 7 10 mph 1010.2mb 59f 66f
1:18 8 11 mph 1010.3mb 59f 66f
1:12 10 14 mph 1010.3mb 59f 65f
1:06 9 13 mph 1010.3mb 59f 67f
1:00 11 14 mph 1010.4mb 59f 68f
12:54 11 13 mph 1010.5mb 59f 68f